"Period start","avg(HW err(1)/warn(2) (#))","avg(Visibility (m))","avg(Weather code (#))","avg(Precip intensity (mm/h))","min(HW err(1)/warn(2) (#))","max(HW err(1)/warn(2) (#))","std(HW err(1)/warn(2) (#))","med(HW err(1)/warn(2) (#))","min(Visibility (m))","max(Visibility (m))","std(Visibility (m))","med(Visibility (m))","min(Weather code (#))","max(Weather code (#))","std(Weather code (#))","med(Weather code (#))","min(Precip intensity (mm/h))","max(Precip intensity (mm/h))","std(Precip intensity (mm/h))","med(Precip intensity (mm/h))"
2014-06-30 00:00:00,2,44938,0,0.00,2,2,0,2,32131,50000,5483,45906,0,0,0,0,0.00,0.00,0.00,0.00
2014-06-30 00:10:00,2,47832,0,0.00,2,2,0,2,41691,50000,2923,49802,0,0,0,0,0.00,0.00,0.00,0.00
2014-06-30 00:20:00,2,39030,0,0.00,2,2,0,2,26286,50000,7190,40092,0,0,0,0,0.00,0.00,0.00,0.00
2014-06-30 00:30:00,2,46274,0,0.00,2,2,0,2,42617,50000,2572,45816,0,0,0,0,0.00,0.00,0.00,0.00
2014-06-30 00:40:00,2,41654,0,0.00,2,2,0,2,24885,50000,8269,44296,0,0,0,0,0.00,0.00,0.00,0.00
2014-06-30 00:50:00,2,41895,0,0.00,2,2,0,2,30626,49847,5701,41580,0,0,0,0,0.00,0.00,0.00,0.00
2014-06-30 01:00:00,2,45834,0,0.00,2,2,0,2,38585,50000,4547,48508,0,0,0,0,0.00,0.00,0.00,0.00
2014-06-30 01:10:00,2,39379,0,0.00,2,2,0,2,27000,50000,8001,39714,0,0,0,0,0.00,0.00,0.00,0.00
2014-06-30 01:20:00,2,39233,0,0.00,2,2,0,2,31601,46991,4941,39880,0,0,0,0,0.00,0.00,0.00,0.00
2014-06-30 01:30:00,2,36358,0,0.00,2,2,0,2,31095,50000,5518,35142,0,0,0,0,0.00,0.00,0.00,0.00
2014-06-30 01:40:00,2,38620,0,0.00,2,2,0,2,23107,50000,7805,40660,0,0,0,0,0.00,0.00,0.00,0.00
2014-06-30 01:50:00,2,42514,0,0.00,2,2,0,2,30302,47268,4685,44521,0,0,0,0,0.00,0.00,0.00,0.00
2014-06-30 02:00:00,2,47241,0,0.00,2,2,0,2,38469,50000,3899,49369,0,0,0,0,0.00,0.00,0.00,0.00
2014-06-30 02:10:00,2,47104,0,0.00,2,2,0,2,39649,50000,3460,48592,0,0,0,0,0.00,0.00,0.00,0.00
2014-06-30 02:20:00,2,44821,0,0.00,2,2,0,2,37338,50000,4549,44982,0,0,0,0,0.00,0.00,0.00,0.00
2014-06-30 02:30:00,2,38001,0,0.00,2,2,0,2,27154,45578,5471,38710,0,0,0,0,0.00,0.00,0.00,0.00
2014-06-30 02:40:00,2,42073,0,0.00,2,2,0,2,26115,50000,8402,43903,0,0,0,0,0.00,0.00,0.00,0.00
2014-06-30 02:50:00,2,38945,0,0.00,2,2,0,2,28977,45482,5818,40499,0,0,0,0,0.00,0.00,0.00,0.00
2014-06-30 03:00:00,2,33931,0,0.00,2,2,0,2,22307,49786,8386,31362,0,0,0,0,0.00,0.00,0.00,0.00
2014-06-30 03:10:00,2,47921,0,0.00,2,2,0,2,40154,50000,3257,50000,0,0,0,0,0.00,0.00,0.00,0.00
2014-06-30 03:20:00,2,45932,0,0.00,2,2,0,2,33716,50000,5916,49348,0,0,0,0,0.00,0.00,0.00,0.00
2014-06-30 03:30:00,2,45625,0,0.00,2,2,0,2,38797,50000,3830,45762,0,0,0,0,0.00,0.00,0.00,0.00
2014-06-30 03:40:00,2,43279,0,0.00,2,2,0,2,32444,50000,7216,46663,0,0,0,0,0.00,0.00,0.00,0.00
2014-06-30 03:50:00,2,43847,0,0.00,2,2,0,2,33380,48712,4767,45078,0,0,0,0,0.00,0.00,0.00,0.00
2014-06-30 04:00:00,2,47305,0,0.00,2,2,0,2,39369,50000,3687,49086,0,0,0,0,0.00,0.00,0.00,0.00
2014-06-30 04:10:00,2,44516,0,0.00,2,2,0,2,32452,50000,6196,46724,0,0,0,0,0.00,0.00,0.00,0.00
2014-06-30 04:20:00,2,44736,0,0.00,2,2,0,2,33780,50000,4367,45822,0,0,0,0,0.00,0.00,0.00,0.00
2014-06-30 04:30:00,2,48260,0,0.00,0,2,1,2,37021,50000,3803,49933,0,0,0,0,0.00,0.00,0.00,0.00
2014-06-30 04:40:00,2,44925,0,0.00,0,2,1,2,38328,50000,3725,45156,0,0,0,0,0.00,0.00,0.00,0.00
2014-06-30 04:50:00,2,48362,0,0.00,2,2,0,2,42244,50000,2526,50000,0,0,0,0,0.00,0.00,0.00,0.00
2014-06-30 05:00:00,2,47774,0,0.00,0,2,1,2,41678,50000,2712,48886,0,0,0,0,0.00,0.00,0.00,0.00
2014-06-30 05:10:00,2,47706,0,0.00,2,2,0,2,40008,50000,3197,49403,0,0,0,0,0.00,0.00,0.00,0.00
2014-06-30 05:20:00,2,46336,0,0.00,2,2,0,2,39386,50000,3872,47566,0,0,0,0,0.00,0.00,0.00,0.00
2014-06-30 05:30:00,2,44072,0,0.00,2,2,0,2,30885,50000,5858,45374,0,0,0,0,0.00,0.00,0.00,0.00
2014-06-30 05:40:00,2,46594,0,0.00,2,2,0,2,39066,50000,4562,49568,0,0,0,0,0.00,0.00,0.00,0.00
2014-06-30 05:50:00,2,47025,0,0.00,2,2,0,2,41740,50000,2755,47159,0,0,0,0,0.00,0.00,0.00,0.00
2014-06-30 06:00:00,2,46560,0,0.00,2,2,0,2,37608,50000,3712,47659,0,0,0,0,0.00,0.00,0.00,0.00
2014-06-30 06:10:00,2,49500,0,0.00,2,2,0,2,48112,50000,768,50000,0,0,0,0,0.00,0.00,0.00,0.00
2014-06-30 06:20:00,2,48366,0,0.00,2,2,0,2,43077,50000,2577,50000,0,0,0,0,0.00,0.00,0.00,0.00
2014-06-30 06:30:00,2,48180,0,0.00,2,2,0,2,40851,50000,2882,50000,0,0,0,0,0.00,0.00,0.00,0.00
2014-06-30 06:40:00,2,49377,0,0.00,2,2,0,2,45015,50000,1500,50000,0,0,0,0,0.00,0.00,0.00,0.00
2014-06-30 06:50:00,2,46970,0,0.00,2,2,0,2,35431,50000,4489,49157,0,0,0,0,0.00,0.00,0.00,0.00
2014-06-30 07:00:00,2,46936,0,0.00,2,2,0,2,38407,50000,3920,48996,0,0,0,0,0.00,0.00,0.00,0.00
2014-06-30 07:10:00,2,48062,0,0.00,2,2,0,2,41765,50000,2911,49480,0,0,0,0,0.00,0.00,0.00,0.00
2014-06-30 07:20:00,2,44257,0,0.00,2,2,0,2,33507,50000,5600,45332,0,0,0,0,0.00,0.00,0.00,0.00
2014-06-30 07:30:00,2,48868,0,0.00,2,2,0,2,44616,50000,1839,50000,0,0,0,0,0.00,0.00,0.00,0.00
2014-06-30 07:40:00,2,49082,0,0.00,2,2,0,2,42696,50000,2173,50000,0,0,0,0,0.00,0.00,0.00,0.00
2014-06-30 07:50:00,2,47910,0,0.00,2,2,0,2,41781,50000,3025,49605,0,0,0,0,0.00,0.00,0.00,0.00
2014-06-30 08:00:00,2,49967,0,0.00,2,2,0,2,49674,50000,98,50000,0,0,0,0,0.00,0.00,0.00,0.00
2014-06-30 08:10:00,2,49159,0,0.00,2,2,0,2,46513,50000,1320,50000,0,0,0,0,0.00,0.00,0.00,0.00
2014-06-30 08:20:00,2,49428,0,0.00,2,2,0,2,44284,50000,1715,50000,0,0,0,0,0.00,0.00,0.00,0.00
2014-06-30 08:30:00,2,47961,0,0.00,2,2,0,2,43109,50000,2308,48720,0,0,0,0,0.00,0.00,0.00,0.00
2014-06-30 08:40:00,1,47373,0,0.00,0,2,1,0,40418,50000,3501,49574,0,0,0,0,0.00,0.00,0.00,0.00
2014-06-30 08:50:00,0,48801,0,0.00,0,0,0,0,45220,50000,1633,49850,0,0,0,0,0.00,0.00,0.00,0.00
2014-06-30 09:00:00,0,48557,0,0.00,0,0,0,0,44122,50000,1910,49513,0,0,0,0,0.00,0.00,0.00,0.00
2014-06-30 09:10:00,0,46438,0,0.00,0,0,0,0,40141,50000,3253,47296,0,0,0,0,0.00,0.00,0.00,0.00
2014-06-30 09:20:00,0,49778,0,0.00,0,0,0,0,47777,50000,667,50000,0,0,0,0,0.00,0.00,0.00,0.00
2014-06-30 09:30:00,0,47072,0,0.00,0,0,0,0,38141,50000,3531,47995,0,0,0,0,0.00,0.00,0.00,0.00
2014-06-30 09:40:00,0,45818,0,0.00,0,0,0,0,40684,50000,3633,44964,0,0,0,0,0.00,0.00,0.00,0.00
2014-06-30 09:50:00,0,49757,0,0.00,0,0,0,0,48345,50000,524,50000,0,0,0,0,0.00,0.00,0.00,0.00
2014-06-30 10:00:00,0,46626,0,0.00,0,0,0,0,38336,50000,4230,48338,0,0,0,0,0.00,0.00,0.00,0.00
2014-06-30 10:10:00,1,50000,0,0.00,0,2,1,0,50000,50000,0,50000,0,0,0,0,0.00,0.00,0.00,0.00
2014-06-30 10:20:00,2,48431,0,0.00,2,2,0,2,42347,50000,2931,49918,0,0,0,0,0.00,0.00,0.00,0.00
2014-06-30 10:30:00,2,46719,0,0.00,2,2,0,2,38875,50000,3808,48470,0,0,0,0,0.00,0.00,0.00,0.00
2014-06-30 10:40:00,2,42243,0,0.00,2,2,0,2,32905,50000,5470,43822,0,0,0,0,0.00,0.00,0.00,0.00
2014-06-30 10:50:00,2,43266,0,0.00,2,2,0,2,36526,50000,5221,42087,0,0,0,0,0.00,0.00,0.00,0.00
2014-06-30 11:00:00,2,45031,0,0.00,2,2,0,2,30617,50000,5921,46987,0,0,0,0,0.00,0.00,0.00,0.00
2014-06-30 11:10:00,2,29335,0,0.00,2,2,0,2,17872,46511,9398,28726,0,0,0,0,0.00,0.00,0.00,0.00
2014-06-30 11:20:00,2,34394,0,0.00,2,2,0,2,19703,50000,12369,34232,0,0,0,0,0.00,0.00,0.00,0.00
2014-06-30 11:30:00,2,34884,0,0.00,2,2,0,2,23479,45016,5561,34938,0,0,0,0,0.00,0.00,0.00,0.00
2014-06-30 11:40:00,2,35116,0,0.00,1,2,0,2,8777,50000,12227,37021,0,0,0,0,0.00,0.00,0.00,0.00
2014-06-30 11:50:00,1,26984,,0.00,1,2,0,1,25622,28615,1237,26715,,,,,0.00,0.00,0.00,0.00
2014-06-30 12:00:00,2,41706,3,0.00,2,2,0,2,27256,50000,7335,42970,0,4,2,4,0.00,0.00,0.00,0.00
2014-06-30 12:10:00,2,47110,0,0.00,2,2,0,2,39578,50000,3703,49191,0,0,0,0,0.00,0.00,0.00,0.00
2014-06-30 12:20:00,2,48338,0,0.00,2,2,0,2,43814,50000,2229,50000,0,0,0,0,0.00,0.00,0.00,0.00
2014-06-30 12:30:00,2,49952,0,0.00,2,2,0,2,49524,50000,143,50000,0,0,0,0,0.00,0.00,0.00,0.00
2014-06-30 12:40:00,2,49868,0,0.00,2,2,0,2,48681,50000,396,50000,0,0,0,0,0.00,0.00,0.00,0.00
2014-06-30 12:50:00,2,49913,0,0.00,2,2,0,2,49133,50000,260,50000,0,0,0,0,0.00,0.00,0.00,0.00
2014-06-30 13:00:00,2,49773,0,0.00,2,2,0,2,47733,50000,680,50000,0,0,0,0,0.00,0.00,0.00,0.00
2014-06-30 13:10:00,2,49033,0,0.00,2,2,0,2,42822,50000,2169,50000,0,0,0,0,0.00,0.00,0.00,0.00
2014-06-30 13:20:00,2,49024,0,0.00,2,2,0,2,45560,50000,1748,50000,0,0,0,0,0.00,0.00,0.00,0.00
2014-06-30 13:30:00,2,49777,0,0.00,2,2,0,2,48403,50000,475,50000,0,0,0,0,0.00,0.00,0.00,0.00
2014-06-30 13:40:00,2,49775,0,0.00,2,2,0,2,48826,50000,383,50000,0,0,0,0,0.00,0.00,0.00,0.00
2014-06-30 13:50:00,2,49976,0,0.00,2,2,0,2,49761,50000,72,50000,0,0,0,0,0.00,0.00,0.00,0.00
2014-06-30 14:00:00,2,50000,0,0.00,2,2,0,2,50000,50000,0,50000,0,0,0,0,0.00,0.00,0.00,0.00
2014-06-30 14:10:00,2,50000,0,0.00,2,2,0,2,50000,50000,0,50000,0,0,0,0,0.00,0.00,0.00,0.00
2014-06-30 14:20:00,2,49085,0,0.00,2,2,0,2,44395,50000,1887,50000,0,0,0,0,0.00,0.00,0.00,0.00
2014-06-30 14:30:00,2,50000,0,0.00,2,2,0,2,50000,50000,0,50000,0,0,0,0,0.00,0.00,0.00,0.00
2014-06-30 14:40:00,2,50000,0,0.00,2,2,0,2,50000,50000,0,50000,0,0,0,0,0.00,0.00,0.00,0.00
2014-06-30 14:50:00,2,50000,0,0.00,2,2,0,2,50000,50000,0,50000,0,0,0,0,0.00,0.00,0.00,0.00
2014-06-30 15:00:00,2,50000,0,0.00,2,2,0,2,50000,50000,0,50000,0,0,0,0,0.00,0.00,0.00,0.00
2014-06-30 15:10:00,2,49906,0,0.00,2,2,0,2,49057,50000,283,50000,0,0,0,0,0.00,0.00,0.00,0.00
2014-06-30 15:20:00,2,49935,0,0.00,2,2,0,2,49350,50000,195,50000,0,0,0,0,0.00,0.00,0.00,0.00
2014-06-30 15:30:00,2,50000,0,0.00,2,2,0,2,50000,50000,0,50000,0,0,0,0,0.00,0.00,0.00,0.00
2014-06-30 15:40:00,2,50000,0,0.00,2,2,0,2,50000,50000,0,50000,0,0,0,0,0.00,0.00,0.00,0.00
2014-06-30 15:50:00,2,50000,0,0.00,2,2,0,2,50000,50000,0,50000,0,0,0,0,0.00,0.00,0.00,0.00
2014-06-30 16:00:00,2,49952,0,0.00,2,2,0,2,49515,50000,146,50000,0,0,0,0,0.00,0.00,0.00,0.00
2014-06-30 16:10:00,2,50000,0,0.00,2,2,0,2,50000,50000,0,50000,0,0,0,0,0.00,0.00,0.00,0.00
2014-06-30 16:20:00,2,50000,0,0.00,2,2,0,2,50000,50000,0,50000,0,0,0,0,0.00,0.00,0.00,0.00
2014-06-30 16:30:00,2,50000,0,0.00,2,2,0,2,50000,50000,0,50000,0,0,0,0,0.00,0.00,0.00,0.00
2014-06-30 16:40:00,2,35593,0,0.00,2,2,0,2,4134,50000,18296,44814,0,0,0,0,0.00,0.00,0.00,0.00
2014-06-30 16:50:00,2,2864,7,0.00,2,2,0,2,1221,6117,1627,2194,0,10,5,10,0.00,0.00,0.00,0.00
2014-06-30 17:00:00,2,773,19,0.00,2,2,0,2,589,1137,167,734,10,34,11,10,0.00,0.00,0.00,0.00
2014-06-30 17:10:00,2,623,34,0.00,2,2,0,2,552,687,44,626,34,34,0,34,0.00,0.00,0.00,0.00
2014-06-30 17:20:00,2,654,34,0.00,2,2,0,2,516,822,89,638,34,34,0,34,0.00,0.00,0.00,0.00
2014-06-30 17:30:00,2,859,40,0.00,2,2,0,2,775,909,41,860,34,41,3,41,0.00,0.00,0.00,0.00
2014-06-30 17:40:00,2,967,65,0.01,2,2,0,2,758,1248,155,933,41,71,12,71,0.00,0.05,0.02,0.00
2014-06-30 17:50:00,2,890,73,0.00,2,2,0,2,737,1045,78,908,71,77,3,71,0.00,0.00,0.00,0.00
2014-06-30 18:00:00,2,2670,44,0.00,2,2,0,2,893,5063,1589,1920,20,77,18,41,0.00,0.00,0.00,0.00
2014-06-30 18:10:00,2,7050,20,0.00,2,2,0,2,5643,8403,1114,7037,20,20,0,20,0.00,0.00,0.00,0.00
2014-06-30 18:20:00,2,7785,20,0.00,2,2,0,2,6769,9322,749,7688,20,20,0,20,0.00,0.00,0.00,0.00
2014-06-30 18:30:00,2,7624,20,0.00,2,2,0,2,6546,9439,775,7404,20,20,0,20,0.00,0.00,0.00,0.00
2014-06-30 18:40:00,2,4392,20,0.00,2,2,0,2,2765,7409,1261,4134,20,20,0,20,0.00,0.00,0.00,0.00
2014-06-30 18:50:00,2,5786,20,0.00,2,2,0,2,3497,7088,1112,5818,20,20,0,20,0.00,0.00,0.00,0.00
2014-06-30 19:00:00,2,5020,18,0.00,2,2,0,2,3878,6190,711,4982,10,20,4,20,0.00,0.00,0.00,0.00
2014-06-30 19:10:00,2,3827,10,0.00,2,2,0,2,2459,5398,929,4084,10,10,0,10,0.00,0.00,0.00,0.00
2014-06-30 19:20:00,2,2429,10,0.00,2,2,0,2,2256,2583,96,2439,10,10,0,10,0.00,0.00,0.00,0.00
2014-06-30 19:30:00,2,3752,10,0.00,2,2,0,2,2900,4767,588,3834,10,10,0,10,0.00,0.00,0.00,0.00
2014-06-30 19:40:00,2,2593,10,0.00,2,2,0,2,1976,3508,539,2481,10,10,0,10,0.00,0.00,0.00,0.00
2014-06-30 19:50:00,2,2841,10,0.00,2,2,0,2,2166,3242,338,2980,10,10,0,10,0.00,0.00,0.00,0.00
2014-06-30 20:00:00,2,3186,10,0.00,2,2,0,2,2526,3772,368,3217,10,10,0,10,0.00,0.00,0.00,0.00
2014-06-30 20:10:00,2,4165,10,0.00,2,2,0,2,3313,5065,499,4086,10,10,0,10,0.00,0.00,0.00,0.00
2014-06-30 20:20:00,2,5238,10,0.00,2,2,0,2,3386,6218,943,5609,10,10,0,10,0.00,0.00,0.00,0.00
2014-06-30 20:30:00,2,4073,10,0.00,2,2,0,2,3225,5152,623,3944,10,10,0,10,0.00,0.00,0.00,0.00
2014-06-30 20:40:00,2,4698,10,0.00,2,2,0,2,3950,6715,773,4438,10,10,0,10,0.00,0.00,0.00,0.00
2014-06-30 20:50:00,2,6484,10,0.00,2,2,0,2,3545,9074,1500,6298,10,10,0,10,0.00,0.00,0.00,0.00
2014-06-30 21:00:00,2,5020,10,0.00,2,2,0,2,3776,6436,966,4788,10,10,0,10,0.00,0.00,0.00,0.00
2014-06-30 21:10:00,2,3674,10,0.00,2,2,0,2,2755,4901,686,3474,10,10,0,10,0.00,0.00,0.00,0.00
2014-06-30 21:20:00,2,3618,10,0.00,2,2,0,2,3277,4158,265,3607,10,10,0,10,0.00,0.00,0.00,0.00
2014-06-30 21:30:00,2,3071,10,0.00,2,2,0,2,2532,3863,353,2971,10,10,0,10,0.00,0.00,0.00,0.00
2014-06-30 21:40:00,2,2950,10,0.00,2,2,0,2,2463,3313,222,2952,10,10,0,10,0.00,0.00,0.00,0.00
2014-06-30 21:50:00,2,2775,10,0.00,2,2,0,2,2331,3317,322,2806,10,10,0,10,0.00,0.00,0.00,0.00
2014-06-30 22:00:00,2,4301,10,0.00,2,2,0,2,3022,5939,908,4068,10,10,0,10,0.00,0.00,0.00,0.00
2014-06-30 22:10:00,2,5977,10,0.00,2,2,0,2,4215,7163,1059,6087,10,10,0,10,0.00,0.00,0.00,0.00
2014-06-30 22:20:00,2,8458,10,0.00,2,2,0,2,3466,12865,2791,9406,10,10,0,10,0.00,0.00,0.00,0.00
2014-06-30 22:30:00,2,16285,10,0.00,2,2,0,2,7134,27504,6102,14386,10,10,0,10,0.00,0.00,0.00,0.00
2014-06-30 22:40:00,2,26904,0,0.00,2,2,0,2,4827,50000,15831,26738,0,0,0,0,0.00,0.00,0.00,0.00
2014-06-30 22:50:00,2,11180,0,0.00,2,2,0,2,5844,18725,4013,11418,0,0,0,0,0.00,0.00,0.00,0.00
2014-06-30 23:00:00,2,39496,0,0.00,2,2,0,2,18579,50000,8756,40454,0,0,0,0,0.00,0.00,0.00,0.00
2014-06-30 23:10:00,2,15240,0,0.00,2,2,0,2,4618,30644,9393,10174,0,0,0,0,0.00,0.00,0.00,0.00
2014-06-30 23:20:00,2,7323,10,0.00,2,2,0,2,1865,22227,5621,6133,10,10,0,10,0.00,0.00,0.00,0.00
2014-06-30 23:30:00,2,16536,10,0.00,2,2,0,2,4178,36975,10690,12492,10,10,0,10,0.00,0.00,0.00,0.00
2014-06-30 23:40:00,2,23577,1,0.00,2,2,0,2,2816,50000,18671,19257,0,10,3,0,0.00,0.00,0.00,0.00
2014-06-30 23:50:00,2,43631,0,0.00,2,2,0,2,26996,50000,7121,45672,0,0,0,0,0.00,0.00,0.00,0.00
